Home   Weather   Melhus   Past weeks

Flag for Norway Past Weather in Melhus, Norway — Yesterday and Last 2 Weeks

Now
50 °F

Sunny.


Feels Like: 47 °F
Forecast: 56 / 67 °F
Wind: 7 mph from Southeast

Location: Trondheim / Vaernes

Current Time: Aug 17, 2017 at 7:48:59 am

Latest Report: Aug 17, 2017 at 6:50 am


Visibility: 10 mi

Pressure: 29.95 "Hg

Humidity: 94%

Dew Point: 48 °F

Location of MelhusLocation

Past Weather in Melhus — Graph

°F

Melhus Temperature Yesterday

Maximum temperature yesterday: 63 °F (at 12:20 am)
Minimum temperature yesterday: 54 °F (at 11:50 pm)
Average temperature yesterday: 58 °F

High & Low Weather Summary for the Past Weeks

 TemperatureHumidityPressure
High72 °F (Aug 3, 4:20 pm)100% (Aug 2, 6:20 am)30.15 "Hg (Aug 2, 6:20 am)
Low46 °F (Aug 13, 3:50 am)46% (Aug 3, 2:50 pm)29.45 "Hg (Aug 4, 10:20 am)
Average58 °F77%29.80 "Hg
* Reported Aug 2 6:20 am — Aug 17 6:20 am, Melhus. Weather by CustomWeather, © 2017

Note: Actual official high and low records may vary slightly from our data, if they occured in-between our weather recording intervals... More about our weather records

Advertising

Melhus Weather History for the Previous 24 Hours

Scroll right to see more
 ConditionsComfort  
Time TempWeatherWind HumidityBarometerVisibility
6:20 am
Thu, Aug 17
50 °FSunny.7 mph94%29.98 "Hg10 mi
5:50 am50 °FPassing clouds.5 mph94%29.98 "HgN/A
5:20 am50 °FSunny.5 mph94%29.98 "Hg10 mi
4:50 am50 °FClear.1 mph94%29.98 "Hg10 mi
3:50 am50 °FClear.7 mph94%29.98 "Hg10 mi
2:50 am50 °FPassing clouds.3 mph94%29.98 "HgN/A
1:50 am50 °FPassing clouds.6 mph94%29.98 "HgN/A
1:20 am52 °FPassing clouds.6 mph94%29.98 "HgN/A
12:50 am54 °FPassing clouds.7 mph94%29.98 "HgN/A
12:20 am54 °FPassing clouds.7 mph94%29.98 "HgN/A
11:50 pm
Wed, Aug 16
54 °FPassing clouds.6 mph100%30.01 "HgN/A
11:20 pm55 °FScattered showers. Partly cloudy.3 mph94%30.01 "HgN/A
10:50 pm55 °FLight rain. Partly cloudy.6 mph94%30.01 "HgN/A
10:20 pm55 °FScattered showers. Partly cloudy.7 mph94%30.01 "HgN/A
9:50 pm55 °FPartly cloudy.5 mph94%29.98 "HgN/A
9:20 pm57 °FPartly sunny.5 mph94%29.98 "HgN/A
8:50 pm57 °FScattered showers. Partly sunny.3 mph94%29.98 "HgN/A
8:20 pm57 °FPartly sunny.5 mph94%29.98 "HgN/A
7:50 pm59 °FDrizzle. Overcast.5 mph88%29.98 "HgN/A
7:20 pm59 °FScattered showers. Partly sunny.3 mph82%29.98 "HgN/A
6:50 pm59 °FScattered showers. Partly sunny.5 mph82%29.95 "HgN/A
6:20 pm59 °FPartly sunny.3 mph72%29.95 "HgN/A
5:50 pm59 °FPartly sunny.2 mph77%29.95 "HgN/A
5:20 pm57 °FLight rain. Partly sunny.6 mph88%29.95 "HgN/A
4:50 pm59 °FRain. Partly sunny.5 mph82%29.95 "HgN/A
4:20 pm59 °FScattered showers. Partly sunny.3 mph77%29.95 "HgN/A
3:20 pm61 °FPartly sunny.1 mph72%29.92 "HgN/A
2:50 pm59 °FPartly sunny.2 mph77%29.92 "HgN/A
2:20 pm59 °FBroken clouds.5 mph82%29.92 "HgN/A
1:50 pm57 °FBroken clouds.3 mph82%29.92 "HgN/A
1:20 pm57 °FDrizzle. Broken clouds.5 mph88%29.92 "HgN/A
12:20 pm55 °FLight rain. Broken clouds.10 mph94%29.89 "HgN/A
11:20 am55 °FLight rain. Broken clouds.18 mph94%29.89 "HgN/A
10:50 am55 °FRain. Broken clouds.17 mph94%29.86 "Hg3 mi
10:20 am55 °FRain. Broken clouds.18 mph88%29.86 "Hg4 mi
9:20 am57 °FDrizzle. Broken clouds.9 mph94%29.83 "HgN/A
8:50 am55 °FDrizzle. Broken clouds.5 mph100%29.83 "HgN/A
8:20 am55 °FDrizzle. Broken clouds.3 mph100%29.83 "Hg5 mi
7:50 am55 °FLight rain. Broken clouds.2 mph94%29.83 "HgN/A
7:20 am55 °FLight rain. Broken clouds.2 mph94%29.83 "Hg5 mi
Weather by CustomWeather, © 2017

See weather overviewHow to use our weather pages